Location: Chapel Hill
(35.9134°N, 79.0560°W)
Time: 18:33:00
(UTC-04:00)

Tiros 1 despin weight - All Passes

Search period start: 01 November 2024 00:00
Search period end: 10 November 2024 23:00
Orbit: 572 x 612 km, 48.2° (Epoch: 31 October)

Date Brightness Start Highest point End Pass type
(mag) Time Alt. Az. Time Alt. Az. Time Alt. Az.
01 Nov - 08:28:30 10° SSW 08:32:21 30° SE 08:36:11 10° ENE daylight
01 Nov - 10:09:00 10° WSW 10:13:11 45° NNW 10:17:21 10° NE daylight
01 Nov - 11:51:58 10° NW 11:54:56 18° N 11:57:54 10° NNE daylight
01 Nov - 13:34:13 10° NNW 13:37:09 18° N 13:40:05 10° NE daylight
01 Nov - 15:14:47 10° NW 15:18:54 44° NNE 15:23:01 10° ESE daylight
01 Nov - 16:55:59 10° WNW 16:59:44 30° SW 17:03:29 10° SSE daylight
02 Nov - 08:35:51 10° SW 08:40:09 55° SE 08:44:24 10° ENE daylight
02 Nov - 10:17:23 10° W 10:21:16 31° NNW 10:25:07 10° NE daylight
02 Nov - 12:00:32 10° NW 12:03:15 16° N 12:05:56 10° NE daylight
02 Nov - 13:42:05 10° NW 13:45:24 21° NNE 13:48:42 10° ENE daylight
02 Nov - 15:22:36 10° NW 15:26:54 73° NE 15:31:10 10° ESE daylight
02 Nov - 17:04:42 10° W 17:07:26 17° SW 17:10:09 10° S daylight
03 Nov - 06:05:04 10° SSE 06:07:30 15° SE 06:09:55 10° E visible
03 Nov - 07:43:35 10° SW 07:47:59 84° NW 07:52:20 10° NE daylight
03 Nov - 09:25:55 10° WNW 09:29:24 23° NNW 09:32:52 10° NE daylight
03 Nov - 11:08:51 10° NW 11:11:32 16° N 11:14:11 10° NE daylight
03 Nov - 12:49:50 10° NW 12:53:34 28° NNE 12:57:16 10° E daylight
03 Nov - 14:30:31 10° WNW 14:34:46 64° SW 14:38:59 10° SE daylight
04 Nov - 06:11:26 10° S 06:15:07 26° SE 06:18:47 10° ENE visible
04 Nov - 07:51:36 10° WSW 07:55:53 51° NNW 08:00:07 10° NE daylight
04 Nov - 09:34:29 10° WNW 09:37:34 19° NNW 09:40:39 10° NNE daylight
04 Nov - 11:16:54 10° NNW 11:19:47 17° N 11:22:38 10° NE daylight
04 Nov - 12:57:32 10° NW 13:01:36 40° NNE 13:05:38 10° E daylight
04 Nov - 14:38:35 10° WNW 14:42:30 35° SW 14:46:23 10° SSE daylight
05 Nov - 06:18:34 10° SSW 06:22:48 47° SE 06:27:00 10° ENE visible
05 Nov - 07:59:51 10° W 08:03:51 34° NNW 08:07:49 10° NE daylight
05 Nov - 09:42:59 10° NW 09:45:46 16° N 09:48:33 10° NE daylight
05 Nov - 11:24:43 10° NW 11:27:57 20° NNE 11:31:10 10° ENE daylight
05 Nov - 13:05:15 10° NW 13:09:31 64° NNE 13:13:45 10° ESE daylight
05 Nov - 14:47:02 10° W 14:50:07 19° SW 14:53:11 10° S daylight
06 Nov - 04:48:17 10° SSE 04:50:07 12° SE 04:51:56 10° ESE visible
06 Nov - 06:26:06 10° SW 06:30:32 84° SE 06:34:54 10° NE daylight
06 Nov - 08:08:14 10° WNW 08:11:52 25° NNW 08:15:28 10° NE daylight
06 Nov - 09:51:16 10° NW 09:53:58 16° N 09:56:38 10° NE daylight
06 Nov - 11:32:24 10° NW 11:36:02 26° NNE 11:39:38 10° ENE daylight
06 Nov - 13:13:01 10° WNW 13:17:18 75° SW 13:21:34 10° SE daylight
06 Nov - 14:57:15 10° WSW 14:57:37 10° SW 14:58:00 10° SW daylight
07 Nov - 04:54:08 10° S 04:57:38 23° SE 05:01:05 10° E visible
07 Nov - 06:33:57 10° WSW 06:38:18 58° NNW 06:42:38 10° NE daylight
07 Nov - 08:16:42 10° WNW 08:19:55 20° NNW 08:23:08 10° NNE daylight
07 Nov - 09:59:18 10° NW 10:02:07 17° N 10:04:55 10° NE daylight
07 Nov - 11:40:01 10° NW 11:44:00 36° NNE 11:47:58 10° E daylight
07 Nov - 13:20:56 10° WNW 13:24:58 41° SW 13:28:59 10° SSE daylight
08 Nov - 05:01:02 10° SSW 05:05:11 40° SE 05:09:19 10° ENE visible
08 Nov - 06:42:02 10° W 06:46:09 37° NNW 06:50:15 10° NE daylight
08 Nov - 08:25:07 10° NW 08:28:01 17° N 08:30:53 10° NE daylight
08 Nov - 10:07:04 10° NNW 10:10:13 19° NNE 10:13:21 10° ENE daylight
08 Nov - 11:47:36 10° NW 11:51:51 55° NNE 11:56:03 10° ESE daylight
08 Nov - 13:29:08 10° W 13:32:31 23° SW 13:35:53 10° S daylight
09 Nov - 03:31:48 10° SE 03:32:27 10° SE 03:33:07 10° ESE visible
09 Nov - 05:08:22 10° SW 05:12:48 73° SE 05:17:11 10° ENE visible
09 Nov - 06:50:17 10° W 06:54:03 27° NNW 06:57:48 10° NE daylight
09 Nov - 08:33:23 10° NW 08:36:07 16° N 08:38:49 10° NE daylight
09 Nov - 10:14:40 10° NW 10:18:13 24° NNE 10:21:44 10° ENE daylight
09 Nov - 11:55:15 10° NW 11:59:34 87° SW 12:03:51 10° SE daylight
09 Nov - 13:38:11 10° WSW 13:39:57 12° SW 13:41:44 10° SSW daylight
10 Nov - 03:36:39 10° S 03:39:52 19° SE 03:43:02 10° E visible
10 Nov - 05:16:02 10° WSW 05:20:28 67° NNW 05:24:51 10° NE visible
10 Nov - 06:58:38 10° WNW 07:02:00 21° NNW 07:05:21 10° NE daylight
10 Nov - 08:41:22 10° NW 08:44:11 16° N 08:46:58 10° NE daylight
10 Nov - 10:22:11 10° NW 10:26:07 32° NNE 10:30:00 10° E daylight
10 Nov - 12:03:00 10° WNW 12:07:10 49° SW 12:11:18 10° SSE daylight
